Nuiqsut, AK

7:13 AM AKDT on May 28, 2017 (GMT -0800)
Nuiqsut

Weather History for PAQT - March, 2014

Change the Weather History Date:

Friday, March 28, 2014

  Actual Average (PAKU) Record (PAKU)
Temperature  
Mean Temperature -3 °F -  
Max Temperature 6 °F -4 °F 6 °F (1987)
Min Temperature -11 °F -14 °F -40 °F (1999)
Degree Days  
Heating Degree Days 68    
Moisture  
Dew Point -3 °F    
Average Humidity 95    
Maximum Humidity 100    
Minimum Humidity 91    
Precipitation  
Precipitation 0.00 in - - ()
Sea Level Pressure  
Sea Level Pressure 30.11 in    
Wind  
Wind Speed 8 mph (WNW)    
Max Wind Speed 13 mph    
Max Gust Speed -    
Visibility 2 miles    
Events Fog , Snow    
Averages and records for this station are not official NWS values.
T = Trace of Precipitation, MM = Missing Value Source: NWS Daily Summary

Daily Weather History Graph

Daily Weather History Graph

Search for Another Location

Airport or City:

Trip Planner

Search our weather history database for the weather conditions in past years. The results will help you decide how hot, cold, wet, or windy it might be!

Date:

Astronomy

Mar. 28, 2014 Rise Set
Actual Time 7:24 AM AKDT 8:56 PM AKDT
Civil Twilight 6:19 AM AKDT 10:01 PM AKDT
Nautical Twilight 4:49 AM AKDT 11:33 PM AKDT
Astronomical Twilight 2:41 AM AKDT 1:36 AM AKDT
Moon 7:08 AM AKDT 6:13 PM AKDT
Length of Visible Light 15h 42m
Length of Day
13h 32m
Waning Crescent, 5% of the Moon is Illuminated
Mar 28
Waning Crescent
Mar 30
New
Apr 7
First Quarter
Apr 14
Full
Apr 21
Last Quarter

Hourly Weather History & Observations

Time (AKDT) Temp. Windchill Dew Point Humidity Pressure Visibility Wind Dir Wind Speed Gust Speed Precip Events Conditions
12:53 AM -9.0 °F -27.4 °F -11.0 °F 91% 30.12 in 10.0 mi West 10.4 mph - N/A   Clear
1:53 AM -9.9 °F -26.3 °F -11.9 °F 91% 30.13 in 10.0 mi WSW 8.1 mph - N/A   Clear
2:53 AM -9.9 °F -27.5 °F -11.9 °F 91% 30.13 in 10.0 mi West 9.2 mph - N/A   Clear
3:39 AM -11.0 °F -29.9 °F -11.9 °F 96% 30.13 in 8.0 mi West 10.4 mph - N/A   Scattered Clouds
3:45 AM -9.0 °F -26.4 °F -11.0 °F 91% 30.13 in 2.5 mi West 9.2 mph - N/A   Mostly Cloudy
3:53 AM -9.0 °F -26.4 °F -9.9 °F 96% 30.14 in 1.8 mi West 9.2 mph - N/A   Mostly Cloudy
4:03 AM -9.0 °F -25.2 °F -9.9 °F 96% 30.13 in 2.0 mi West 8.1 mph - N/A   Overcast
4:26 AM -9.9 °F -24.9 °F -9.9 °F 100% 30.14 in 4.0 mi WSW 6.9 mph - N/A   Overcast
4:39 AM -8.0 °F -23.9 °F -9.0 °F 95% 30.14 in 2.5 mi West 8.1 mph - N/A   Overcast
4:53 AM -8.0 °F -25.0 °F -9.0 °F 95% 30.14 in 6.0 mi West 9.2 mph - N/A   Overcast
5:53 AM -8.0 °F -23.9 °F -9.0 °F 95% 30.14 in 3.0 mi West 8.1 mph - N/A   Overcast
6:37 AM -8.0 °F -23.9 °F -9.0 °F 95% 30.14 in 1.8 mi West 8.1 mph - N/A   Overcast
6:51 AM -7.6 °F -24.6 °F -9.4 °F 92% 30.14 in 3.0 mi West 9.2 mph - N/A   Overcast
6:53 AM -8.0 °F -23.9 °F -9.0 °F 95% 30.14 in 3.0 mi West 8.1 mph - N/A   Overcast
7:12 AM -8.0 °F -23.9 °F -9.0 °F 95% 30.14 in 1.8 mi West 8.1 mph - N/A   Overcast
7:31 AM -8.0 °F -25.0 °F -9.0 °F 95% 30.14 in 0.5 mi West 9.2 mph - N/A Fog Light Freezing Fog
7:53 AM -8.0 °F -26.1 °F -9.0 °F 95% 30.14 in 0.8 mi West 10.4 mph - N/A   Overcast
8:10 AM -8.0 °F -26.1 °F -8.0 °F 100% 30.13 in 1.2 mi West 10.4 mph - N/A   Overcast
8:20 AM -8.0 °F -25.0 °F -8.0 °F 100% 30.14 in 0.5 mi West 9.2 mph - N/A Fog Light Freezing Fog
8:53 AM -8.0 °F -26.1 °F -8.0 °F 100% 30.14 in 1.0 mi West 10.4 mph - N/A   Overcast
8:59 AM -7.1 °F -23.9 °F -8.0 °F 96% 30.13 in 3.0 mi West 9.2 mph - N/A   Overcast
9:16 AM -7.1 °F -23.9 °F -8.0 °F 96% 30.13 in 2.0 mi West 9.2 mph - N/A   Overcast
9:27 AM -6.0 °F -22.6 °F -7.1 °F 95% 30.13 in 5.0 mi West 9.2 mph - N/A   Overcast
9:53 AM -6.0 °F -22.6 °F -6.0 °F 100% 30.14 in 3.0 mi WNW 9.2 mph - N/A   Overcast
10:02 AM -5.1 °F -21.5 °F -6.0 °F 96% 30.13 in 2.0 mi WNW 9.2 mph - N/A   Overcast
10:15 AM -4.0 °F -17.8 °F -5.1 °F 95% 30.13 in 1.8 mi WNW 6.9 mph - N/A   Overcast
10:25 AM -5.1 °F -20.4 °F -6.0 °F 96% 30.13 in 2.0 mi West 8.1 mph - N/A   Overcast
10:32 AM -5.1 °F -20.4 °F -6.0 °F 96% 30.13 in 1.2 mi West 8.1 mph - N/A   Overcast
10:53 AM -4.0 °F -20.2 °F -5.1 °F 95% 30.13 in 2.5 mi West 9.2 mph - N/A   Overcast
11:08 AM -2.9 °F -18.8 °F -4.0 °F 95% 30.13 in 1.8 mi West 9.2 mph - N/A   Overcast
11:18 AM -2.0 °F -17.7 °F -2.9 °F 96% 30.13 in 2.0 mi WNW 9.2 mph - N/A   Overcast
11:29 AM -0.9 °F -16.4 °F -2.0 °F 95% 30.13 in 5.0 mi WNW 9.2 mph - N/A   Overcast
11:53 AM 1.0 °F -14.9 °F -0.0 °F 95% 30.13 in 3.0 mi WNW 10.4 mph - 0.00 in   Overcast
12:22 PM 1.9 °F -12.9 °F 1.0 °F 96% 30.13 in 1.8 mi WNW 9.2 mph - 0.00 in   Overcast
12:53 PM 3.0 °F -10.5 °F 1.0 °F 91% 30.13 in 0.8 mi WNW 8.1 mph - 0.00 in   Overcast
1:20 PM 3.9 °F -9.4 °F 3.0 °F 96% 30.12 in 1.0 mi WNW 8.1 mph - 0.00 in   Overcast
1:31 PM 3.9 °F -10.4 °F 3.0 °F 96% 30.12 in 0.8 mi WNW 9.2 mph - 0.00 in   Overcast
1:53 PM 5.0 °F -8.1 °F 3.9 °F 95% 30.13 in 0.5 mi WNW 8.1 mph - 0.00 in Fog Light Freezing Fog
2:53 PM 5.0 °F -11.6 °F 3.9 °F 95% 30.12 in 0.2 mi WNW 12.7 mph - 0.00 in Fog , Snow Light Snow
3:18 PM 5.0 °F -10.8 °F 3.9 °F 95% 30.11 in 2.0 mi WNW 11.5 mph - 0.00 in Snow Blowing Snow
3:23 PM 5.0 °F -10.0 °F 3.9 °F 95% 30.11 in 1.8 mi WNW 10.4 mph - 0.00 in Snow Blowing Snow
3:43 PM 5.0 °F -10.0 °F 3.9 °F 95% 30.11 in 0.8 mi NW 10.4 mph - 0.00 in   Overcast
3:53 PM 5.0 °F -10.0 °F 3.9 °F 95% 30.12 in 0.8 mi NW 10.4 mph - 0.00 in   Overcast
4:18 PM 3.9 °F -10.4 °F 3.0 °F 96% 30.11 in 1.0 mi WNW 9.2 mph - 0.00 in   Overcast
4:32 PM 3.9 °F -8.2 °F 3.0 °F 96% 30.11 in 2.0 mi WNW 6.9 mph - 0.00 in   Overcast
4:41 PM 3.9 °F -9.4 °F 3.0 °F 96% 30.11 in 1.5 mi WNW 8.1 mph - 0.00 in   Overcast
4:53 PM 3.9 °F -10.4 °F 3.0 °F 96% 30.12 in 1.2 mi NW 9.2 mph - 0.00 in   Overcast
5:53 PM 3.9 °F -3.4 °F 3.0 °F 96% 30.11 in 2.5 mi NW 3.5 mph - 0.00 in   Overcast
6:08 PM 3.0 °F -8.0 °F 1.0 °F 91% 30.10 in 4.0 mi NW 5.8 mph - 0.00 in   Overcast
6:17 PM 3.0 °F -6.4 °F 1.0 °F 91% 30.09 in 1.8 mi NW 4.6 mph - 0.00 in   Overcast
6:28 PM 1.9 °F -9.2 °F -0.0 °F 91% 30.09 in 3.0 mi NW 5.8 mph - 0.00 in   Overcast
6:50 PM 1.4 °F -8.3 °F -0.4 °F 92% 30.09 in 1.8 mi NW 4.6 mph - 0.00 in   Overcast
6:53 PM 1.0 °F -6.7 °F -0.0 °F 95% 30.09 in 2.0 mi NW 3.5 mph - 0.00 in   Overcast
7:04 PM 1.0 °F -8.7 °F -0.0 °F 95% 30.08 in 4.0 mi WNW 4.6 mph - 0.00 in   Overcast
7:22 PM 1.0 °F -8.7 °F -0.9 °F 91% 30.08 in 1.8 mi NW 4.6 mph - 0.00 in   Overcast
7:33 PM 1.0 °F -8.7 °F -0.0 °F 95% 30.08 in 0.2 mi WNW 4.6 mph - 0.00 in Fog Light Freezing Fog
7:51 PM 1.4 °F -6.2 °F -0.4 °F 92% 30.08 in 2.5 mi WNW 3.5 mph - 0.00 in   Overcast
7:53 PM 1.0 °F -6.7 °F -0.0 °F 95% 30.09 in 5.0 mi NW 3.5 mph - 0.00 in   Overcast
8:03 PM -0.0 °F - -0.9 °F 96% 30.08 in 1.8 mi Calm Calm - 0.00 in   Overcast
8:11 PM -0.0 °F -7.9 °F -0.0 °F 100% 30.08 in 0.2 mi NW 3.5 mph - 0.00 in Fog Light Freezing Fog
8:53 PM 1.0 °F -8.7 °F -0.9 °F 91% 30.08 in 0.2 mi WNW 4.6 mph - 0.00 in Fog Light Freezing Fog
9:04 PM 1.0 °F -8.7 °F -0.0 °F 95% 30.07 in 0.2 mi WNW 4.6 mph - 0.00 in Fog Light Freezing Fog
9:15 PM 1.9 °F -7.6 °F 1.0 °F 96% 30.07 in 0.2 mi NNW 4.6 mph - 0.00 in Fog Light Freezing Fog
9:53 PM 1.9 °F -9.2 °F -0.0 °F 91% 30.07 in 0.2 mi NW 5.8 mph - 0.00 in Fog Light Freezing Fog
10:53 PM 1.0 °F -11.7 °F -0.0 °F 95% 30.07 in 0.5 mi NNW 6.9 mph - 0.00 in Fog Light Freezing Fog
11:02 PM 1.0 °F -11.7 °F -0.0 °F 95% 30.06 in 1.0 mi NNW 6.9 mph - 0.00 in   Overcast
11:49 PM -0.4 °F -12.0 °F -0.4 °F 100% 30.05 in 0.8 mi NW 5.8 mph - 0.00 in   Overcast
11:53 PM -0.0 °F -9.9 °F -0.9 °F 96% 30.06 in 0.8 mi NW 4.6 mph - 0.00 in   Overcast
11:57 PM -0.0 °F -11.6 °F -0.9 °F 96% 30.05 in 1.0 mi NW 5.8 mph - 0.00 in   Overcast